Regional Weather Roundup
Issued by NWS State College, PA

Home | Current Version | Previous Version | Text Only | Print | Product List | Glossary On
Versions: 1 2 3 4 5 6 7 8 9 10 11 12 13 14 15 16 17 18 19 20 21 22 23 24 25 26 27 28 29 30 31 32 33 34 35 36 37 38 39 40 41 42 43 44 45 46 47 48 49 50
000
ASUS41 KCTP 051310
RWRCTP

REGIONAL WEATHER ROUNDUP
NATIONAL WEATHER SERVICE STATE COLLEGE PA
900 AM EDT SUN JUL 05 2015

Note: "fair" indicates few or no clouds below 12,000 feet with no
significant weather and/or obstructions to visibility.

* = STATION THAT DOES NOT REPORT PRECIPITATION /E.G. RAIN...SNOW...ETC/
    THUNDER OR FOG.

PAZ002>004-007>009-013>016-020>023-029>032-051400-
WESTERN PENNSYLVANIA

CITY           SKY/WX    TMP DP  RH WIND       PRES   REMARKS
ERIE           SUNNY     69  56  62 S6        30.15S
MEADVILLE      SUNNY     66  54  65 CALM      30.18R
FRANKLIN*      SUNNY     63  54  72 E6        30.20R
NEW CASTLE     PTSUNNY   58  58 100 CALM      30.18S
BEAVER COUNTY  NOT AVBL
BUTLER*        PTSUNNY   61  55  82 NE3       30.19R
PITTSBURGH INT CLOUDY    64  56  75 CALM      30.16R
PITTSBURGH     MOSUNNY   65  56  72 CALM      30.15S HAZE
INDIANA*       SUNNY     61  59  94 CALM      30.21R
LATROBE        SUNNY     61  61 100 CALM      30.17S
WASHINGTON CO* NOT AVBL
$$

PAZ004>006-010>012-017>019-024>028-033>037-041-042-045-046-049>053-051400-
CENTRAL PENNSYLVANIA

CITY           SKY/WX    TMP DP  RH WIND       PRES   REMARKS
BRADFORD       SUNNY     62  56  80 CALM      30.20R
DUBOIS         PTSUNNY   65  57  75 VRB3      30.18S
CLEARFIELD     FOG       60  58  92 CALM      30.19S VSB 1
JOHNSTOWN      PTSUNNY   63  57  81 SW5       30.20R
ALTOONA        CLOUDY    61  60  97 CALM      30.19R FOG
STATE COLLEGE  CLOUDY    66  61  82 CALM      30.18R HAZE
WILLIAMSPORT   CLOUDY    66  62  87 CALM      30.15R
SELINSGROVE    CLOUDY    66  62  87 NE6       30.17R
FT INDIANTOWN  PTSUNNY   66  65  98 CALM      30.15R
CAPITAL CITY   CLOUDY    66  63  90 CALM      30.15R FOG
HARRISBURG     CLOUDY    66  64  93 NW3       30.15R FOG
YORK           CLOUDY    67  64  90 CALM      30.15R FOG
$$

PAZ038>040-043-044-047-048-054-055-060>062-067>071-051400-
EASTERN PENNSYLVANIA

CITY           SKY/WX    TMP DP  RH WIND       PRES   REMARKS
SCRANTON       CLOUDY    64  60  87 W5        30.17R
MOUNT POCONO   PTSUNNY   63  57  81 NW6       30.18R
ALLENTOWN      MOSUNNY   68  62  81 NW7       30.15R
QUAKERTOWN*    MOSUNNY   70  63  78 NW5       30.16R
READING        MOSUNNY   67  63  87 CALM      30.14R
LANCASTER      MOSUNNY   68  64  87 NW3       30.15R FOG
COATESVILLE    MOSUNNY   70  68  94 NW5       30.16R FOG
POTTSTOWN      MOSUNNY   67  65  93 W3        30.16R FOG
BLUE BELL      MOSUNNY   72  64  78 NW3       30.14R
DOYLESTOWN     MOSUNNY   69  63  81 NW3       30.14R
WILLOW GROVE   NOT AVBL
NORTH PHILA    SUNNY     74  61  63 CALM      30.15R
PHILADELPHIA   PTSUNNY   74  59  59 VRB3      30.14R
$$


USA.gov is the U.S. government's official web portal to all federal, state and local government web resources and services.